Weather History for PABI - November, 2013

Change the Weather History Date:

Tuesday, November 12, 2013

  Actual Average Record
Temperature  
Mean Temperature 4 °F -  
Max Temperature 17 °F 16 °F 44 °F (1997)
Min Temperature -8 °F 5 °F -14 °F (2005)
Degree Days  
Heating Degree Days 60    
Moisture  
Dew Point 2 °F    
Average Humidity 80    
Maximum Humidity 87    
Minimum Humidity 63    
Precipitation  
Precipitation 0.00 in - - ()
Sea Level Pressure  
Sea Level Pressure 30.30 in    
Wind  
Wind Speed 3 mph (SSE)    
Max Wind Speed 12 mph    
Max Gust Speed -    
Visibility 10 miles    
Events Snow    
Averages and records for this station are not official NWS values.
T = Trace of Precipitation, MM = Missing Value Source: NWS Daily Summary

Daily Weather History Graph

Daily Weather History Graph

Search for Another Location

Airport or City:

Trip Planner

Search our weather history database for the weather conditions in past years. The results will help you decide how hot, cold, wet, or windy it might be!

Date:

Astronomy

Nov. 12, 2013 Rise Set
Actual Time 9:02 AM AKST 3:51 PM AKST
Civil Twilight 8:03 AM AKST 4:49 PM AKST
Nautical Twilight 7:04 AM AKST 5:48 PM AKST
Astronomical Twilight 6:08 AM AKST 6:44 PM AKST
Moon 2:41 PM AKST (11/12) 2:19 AM AKST (11/12)
Length of Visible Light 8h 45m
Length of Day
6h 48m
Waxing Gibbous, 77% of the Moon is Illuminated
Nov 12
Waxing Gibbous
Nov 17
Full
Nov 25
Last Quarter
Dec 2
New
Dec 9
First Quarter

Hourly Weather History & Observations

Time (AKST) Temp. Windchill Dew Point Humidity Pressure Visibility Wind Dir Wind Speed Gust Speed Precip Events Conditions
12:53 AM 15.1 °F 9.4 °F 10.0 °F 80% 30.38 in 10.0 mi WNW 3.5 mph - 0.00 in   Overcast
1:53 AM 14.0 °F 3.9 °F 8.1 °F 77% 30.38 in 10.0 mi West 6.9 mph - N/A   Overcast
2:53 AM 14.0 °F - 7.0 °F 74% 30.37 in 10.0 mi Calm Calm - N/A   Overcast
3:53 AM 12.9 °F 6.9 °F 7.0 °F 77% 30.37 in 10.0 mi WSW 3.5 mph - N/A   Overcast
4:53 AM 12.9 °F 5.2 °F 6.1 °F 74% 30.36 in 10.0 mi SW 4.6 mph - N/A   Overcast
5:53 AM 12.0 °F 5.9 °F 6.1 °F 77% 30.35 in 10.0 mi SSW 3.5 mph - N/A   Overcast
6:53 AM 12.0 °F 0.5 °F 7.0 °F 80% 30.35 in 9.0 mi SW 8.1 mph - 0.00 in Snow Light Snow
7:53 AM 10.9 °F - 7.0 °F 84% 30.36 in 9.0 mi Calm Calm - 0.00 in Snow Light Snow
8:53 AM 12.0 °F - 7.0 °F 80% 30.35 in 9.0 mi Calm Calm - 0.00 in Snow Light Snow
9:53 AM 12.0 °F - 7.0 °F 80% 30.35 in 9.0 mi Calm Calm - 0.00 in Snow Light Snow
10:53 AM 12.0 °F - 7.0 °F 80% 30.34 in 9.0 mi Calm Calm - 0.00 in Snow Light Snow
11:53 AM 12.0 °F 5.9 °F 7.0 °F 80% 30.33 in 9.0 mi East 3.5 mph - 0.00 in Snow Light Snow
12:53 PM 12.0 °F - 8.1 °F 84% 30.32 in 10.0 mi Calm Calm - 0.00 in   Overcast
1:53 PM 12.9 °F 6.9 °F 8.1 °F 81% 30.32 in 10.0 mi ESE 3.5 mph - N/A   Mostly Cloudy
2:53 PM 12.0 °F - 8.1 °F 84% 30.31 in 10.0 mi Calm Calm - 0.00 in   Mostly Cloudy
3:53 PM 10.0 °F 3.6 °F 7.0 °F 87% 30.29 in 10.0 mi ESE 3.5 mph - N/A   Scattered Clouds
4:53 PM 3.0 °F -6.4 °F -0.9 °F 84% 30.29 in 10.0 mi South 4.6 mph - N/A   Partly Cloudy
5:53 PM -0.9 °F -8.9 °F -5.1 °F 83% 30.29 in 10.0 mi South 3.5 mph - N/A   Partly Cloudy
6:53 PM -5.1 °F -17.6 °F -9.9 °F 80% 30.28 in 10.0 mi South 5.8 mph - N/A   Partly Cloudy
7:53 PM -4.0 °F -16.3 °F -9.0 °F 79% 30.26 in 10.0 mi SSE 5.8 mph - N/A   Clear
8:53 PM -8.0 °F -16.9 °F -11.0 °F 86% 30.25 in 10.0 mi East 3.5 mph - N/A   Clear
9:30 PM -4.0 °F -14.6 °F -7.6 °F 85% 30.09 in 10.0 mi SE 4.6 mph - N/A   Scattered Clouds
9:53 PM -4.0 °F -12.4 °F -8.0 °F 83% 30.22 in 10.0 mi SE 3.5 mph - N/A   Clear
10:53 PM -2.0 °F -12.2 °F -6.0 °F 83% 30.19 in 10.0 mi ESE 4.6 mph - N/A   Clear
11:53 PM 3.0 °F -13.3 °F -2.0 °F 80% 30.16 in 10.0 mi ESE 11.5 mph - N/A   Clear